Погода в Сергиевской

Россия / Вологодская область     60°14′37″N   43°56′26″E
темп.,
°C
ветер,
м/с
пор.,
м/с
влажн.,
%
обл.,
%
осадки,
мм/ч
давл.,
гПа
погр.,
м
24 июля, сб
сб2400:00+8ссз3109215 0.0 1005403
03:00+5сз310955 0.0 1007248
06:00+7сз2985100 0.0 1009318
09:00+12сз365253 0.0 10101342
12:00+15сз4639100 0.0 10112140
15:00+15сз3638100 0.0 10112124
18:00+15сз264398 0.0 10121819
21:00+11ююз236085 0.0 101343
25 июля, вс
вс2500:00+7зюз227477 0.0 101540
03:00+10зюз2567100 0.0 1015124
06:00+11юз276486 0.0 1016244
09:00+15з3753100 0.0 1017833
12:00+17з474890 0.0 10171751
15:00+16з2557100 0.0 1018267
18:00+15ююз116699 0.0 101813
21:00+13юз257254 0.0 1018106
26 июля, пн
пн2600:00+13юз286882 0.0 1019213
03:00+11зюз288099 0.0 1019158
06:00+13зюз268567 0.1 1019203
09:00+19зюз3554100 0.1 1018756
12:00+23з5841100 0.0 10172615
15:00+21зсз476198 2.0 10171212
18:00+19сз12819 0.9 1017144
21:00+14сз11977 2.1 101837
27 июля, вт
вт2700:00+11ссз249921 0.0 1019112
03:00+10сз249826 0.0 102078
06:00+11ссз39930 0.0 1021420
09:00+15ссз47532 0.0 1021932
12:00+19ссз474117 0.0 10201550
15:00+21ссз46365 0.0 10191824
18:00+20с254519 0.0 10181043
21:00+13ю22645 0.0 101812
28 июля, ср
ср2800:00+12юз26805 0.0 1017101
03:00+12юз2494100 0.0 101685
06:00+15юз399293 0.3 1014300
09:00+21зюз5106086 0.3 1011610
12:00+26з6104569 0.0 10091764
15:00+26з594199 0.0 10062229
18:00+25зюз5114782 0.0 10051218
21:00+20зсз396183 0.2 1005321